Snowfall_Accumulation
0.0 0.0 0.0 0.0 0.0 0.0 0.0 0.0 0.0 0.0 0.0 0.0 0.0 0.0 0.0 0.0 0.0 0.0 0.0 0.0 0.0 0.0
0.0 0.0 0.0 0.0 0.0 0.0 0.0 0.0 0.0 0.0 0.0 0.0 0.0 0.0 0.0 0.0 0.0 0.0 0.0 0.0 0.0 0.0
0.0 0.0 0.0 0.0 0.0 0.0 0.0 0.0 0.0 0.0 0.0 0.0 0.0 0.0 0.0 0.0 0.0 0.0 0.0 0.0 0.0 0.0
0.0 0.0 0.0 0.0 0.0 0.0 0.0 0.0 0.0 0.0 0.0 0.0 0.0 0.0 0.0 0.0 0.0 0.0 0.0 0.0 0.0 0.0
0.0 0.0 0.0 0.0 0.0 0.0 0.0 0.0 0.0 0.0 0.0 0.0 0.0 0.0 0.0 0.0 0.0 0.0 0.0 0.0 0.0 0.0
0.0 0.0 0.0 0.0 0.0 0.0 0.0 0.0 0.0 0.0 0.0 0.0 0.0 0.0 0.0 0.0 0.0 0.0 0.0 0.0 0.0 0.0
0.0 0.0 0.0 0.0 0.0 0.0 0.0 0.0 0.0 0.0 0.0 0.0 0.0 0.0 0.1 0.1 0.1 0.1 0.0 0.0 0.0 0.0
0.0 0.0 0.0 0.0 0.0 0.0 0.0 0.0 0.0 0.0 0.0 0.0 0.0 0.0 0.1 0.0 0.1 0.1 0.1 0.1 0.0 0.0
0.1 0.1 0.1 0.0 0.0 0.0 0.0 0.0 0.1 0.0 0.0 0.1 0.0 nan nan 0.0 0.1 0.1 0.1 0.2 0.0 0.0
0.3 2.9 0.4 0.0 0.1 0.1 0.4 0.2 0.2 0.3 0.2 0.6 0.2 nan nan nan 0.2 0.3 0.2 0.2 0.1 0.1
0.5 2.7 6.2 2.1 3.1 4.0 1.7 2.6 1.8 2.2 2.5 1.4 1.7 nan nan nan 1.4 1.1 1.0 1.3 0.5 0.2
0.3 1.8 3.6 6.4 8.2 6.6 5.7 5.6 5.4 2.7 3.4 3.9 4.0 nan nan 0.8 2.0 3.6 5.6 3.4 1.9 1.8
0.0 0.1 0.7 2.3 5.5 5.4 2.7 5.2 4.0 5.2 3.6 nan 4.8 nan nan nan 1.5 3.0 3.9 2.8 1.9 nan
0.0 0.1 0.5 1.8 2.8 2.8 2.7 2.8 3.2 3.5 4.0 3.1 2.1 2.9 nan nan 1.5 3.0 4.0 3.8 4.8 3.2
Water_Equivalent
0.00 0.00 0.00 0.00 0.00 0.00 0.00 0.00 0.00 0.00 0.00 0.00 0.00 0.00 0.00 0.00 0.00 0.00 0.00 0.00 0.00 0.00
0.00 0.00 0.00 0.00 0.00 0.00 0.00 0.00 0.00 0.00 0.00 0.00 0.00 0.00 0.00 0.00 0.00 0.00 0.00 0.00 0.00 0.00
0.00 0.00 0.00 0.00 0.00 0.00 0.00 0.00 0.00 0.00 0.00 0.00 0.00 0.00 0.00 0.00 0.00 0.00 0.00 0.00 0.00 0.00
0.00 0.00 0.00 0.00 0.00 0.00 0.00 0.00 0.00 0.00 0.00 0.00 0.00 0.00 0.00 0.00 0.00 0.00 0.00 0.00 0.00 0.00
0.00 0.00 0.00 0.00 0.00 0.00 0.00 0.00 0.00 0.00 0.00 0.00 0.00 0.00 0.00 0.00 0.00 0.00 0.00 0.00 0.00 0.00
0.00 0.00 0.00 0.00 0.00 0.00 0.00 0.00 0.00 0.00 0.00 0.01 0.01 0.02 0.02 0.02 0.01 0.00 0.00 0.00 0.00 0.00
0.00 0.01 0.00 0.00 0.00 0.00 0.00 0.00 0.00 0.00 0.00 0.01 0.01 0.01 0.02 0.02 0.03 0.02 0.01 0.01 0.00 0.01
0.01 0.01 0.00 0.00 0.00 0.00 0.00 0.00 0.00 0.00 0.00 0.00 0.00 0.00 0.02 0.02 0.03 0.03 0.03 0.03 0.00 0.01
0.02 0.03 0.02 0.01 0.00 0.00 0.00 0.01 0.04 0.01 0.01 0.03 0.00 nan nan 0.01 0.03 0.05 0.06 0.07 0.02 0.01
0.11 1.17 0.16 0.01 0.02 0.05 0.16 0.08 0.07 0.09 0.08 0.20 0.08 nan nan nan 0.08 0.09 0.06 0.06 0.05 0.03
0.15 1.08 2.49 0.83 1.13 1.42 0.59 0.88 0.55 0.63 0.70 0.41 0.64 nan nan nan 0.47 0.30 0.28 0.39 0.12 0.06
0.10 0.64 1.21 2.18 2.69 2.07 1.88 1.79 1.66 0.77 0.89 1.01 0.98 nan nan 0.20 0.55 1.08 1.78 1.11 0.57 0.50
0.00 0.02 0.19 0.55 1.46 1.58 0.66 1.38 1.10 1.37 1.02 nan 1.14 nan nan nan 0.38 0.53 0.84 0.64 0.51 nan
0.00 0.02 0.13 0.41 0.62 0.60 0.54 0.52 0.58 0.66 0.80 0.64 0.43 0.64 nan nan 0.32 0.66 0.75 0.74 1.01 0.79
SL_Ratio
nan nan nan nan nan nan nan nan nan nan nan nan nan nan nan nan nan nan nan nan nan nan
nan nan nan nan nan nan nan nan nan nan nan nan nan nan nan nan nan nan nan nan nan nan
nan nan nan nan nan nan nan nan nan nan nan nan nan nan nan nan nan nan nan nan nan nan
nan nan nan nan nan nan nan nan nan nan nan nan nan nan nan nan nan nan nan nan nan nan
nan nan nan nan nan nan nan nan nan nan nan nan nan nan 0.0 3.3 nan nan nan nan nan nan
nan nan nan nan nan nan nan nan nan nan 2.5 2.5 2.3 2.5 2.5 2.4 2.5 nan nan nan 0.0 3.6
2.7 2.9 2.5 nan nan nan nan nan nan nan 5.0 3.0 2.7 2.4 2.6 2.5 2.5 2.5 3.3 3.6 3.6 3.5
2.8 3.0 3.3 nan nan nan nan nan nan nan nan nan nan 3.3 2.6 2.5 2.5 2.5 2.5 2.7 3.3 3.5
2.6 2.5 2.6 2.7 0.0 nan nan 2.4 2.7 2.9 2.8 2.9 nan nan nan 2.4 2.6 2.5 2.5 2.5 2.4 2.5
2.7 2.5 2.6 2.8 2.6 2.6 2.6 2.5 3.0 2.9 2.8 2.8 3.0 nan nan nan 2.8 3.1 3.2 2.8 2.5 2.5
3.0 2.5 2.5 2.5 2.7 2.9 2.9 3.0 3.3 3.5 3.6 3.5 2.7 nan nan nan 3.0 3.5 3.6 3.3 3.7 3.5
2.8 2.9 3.0 3.0 3.1 3.2 3.1 3.1 3.3 3.5 3.8 3.9 4.1 nan nan 4.0 3.6 3.3 3.2 3.1 3.4 3.5
0.0 2.5 3.5 4.3 3.7 3.4 4.1 3.7 3.7 3.8 3.5 nan 4.2 nan nan nan 3.8 5.6 4.7 4.4 3.7 nan
5.0 2.8 3.7 4.5 4.6 4.6 5.0 5.4 5.5 5.4 5.0 4.9 4.8 4.6 nan nan 4.7 4.5 5.3 5.1 4.8 4.1